AirNav   ATP
 
 832 users online  

51M Oscoda County Dennis Kauffman Memorial Airport
Mio, Michigan, USA

GOING TO MIO?


FAA INFORMATION EFFECTIVE 06 DECEMBER 2018

Location

FAA Identifier: 51M
Lat/Long: 44-40-29.4000N / 084-07-19.3500W
44-40.490000N / 084-07.322500W
44.6748333 / -84.1220417
(estimated)
Elevation: 1033 ft. / 315 m (estimated)
Variation: 05W (1985)
From city: 2 miles N of MIO, MI
Time zone: UTC -5 (UTC -4 during Daylight Saving Time)
Zip code: 48647

Airport Operations

Airport use: Open to the public
Activation date: 07/1989
Control tower: no
ARTCC: MINNEAPOLIS CENTER
FSS: LANSING FLIGHT SERVICE STATION
NOTAMs facility: LAN (NOTAM-D service available)
Attendance: UNATNDD
Wind indicator: lighted
Segmented circle: yes
Lights: ACTVT PAPI RWY 10, PAPI RWY 28, MIRL RWY 10/28 - CTAF.
Beacon: white-green (lighted land airport)
Operates sunset to sunrise.

Airport Communications

CTAF: 122.9

Nearby radio navigation aids

VOR radial/distance  VOR name  Freq  Var
CGGr097/(25.9)GRAYLING VOR109.8006W
GLRr135/32.0GAYLORD VOR/DME109.2006W
ASPr301/33.9AU SABLE VOR/DME116.1007W
APNr231/34.3ALPENA VORTAC108.8007W

 
NDB name  Hdg/Dist  Freq  Var  ID
GRAYLING105/30.435906WGYG --. -.-- --.

Airport Services

Fuel available: 100LL
SELF-SERVE.
Parking: tiedowns

Runway Information

Runway 10/28

Dimensions: 3000 x 75 ft. / 914 x 23 m
Surface: asphalt, in excellent condition
Runway edge lights: medium intensity
RUNWAY 10  RUNWAY 28
Latitude: 44-40.486667N44-40.493333N
Longitude: 084-07.668333W084-06.976667W
Elevation: 1033.0 ft.1032.0 ft.
Traffic pattern: leftleft
Runway heading: 094 magnetic, 089 true274 magnetic, 269 true
Markings: basic, in good conditionbasic, in good condition
Visual slope indicator: 4-light PAPI on left (3.00 degrees glide path)4-light PAPI on left (4.00 degrees glide path)
UNUSBL BYD 6 DEG RIGHT OF CNTRLN.
Touchdown point: yes, no lightsyes, no lights
Obstructions: 68 ft. trees, 1600 ft. from runway, 20:1 slope to clear71 ft. trees, 2240 ft. from runway, 28:1 slope to clear

Airport Ownership and Management from official FAA records

Ownership: Publicly-owned
Owner: OSCODA COUNTY
311 MORENCI
MIO, MI 48619
Phone 989-826-1130
Manager: DAVID E. KAUFFMAN
191 S. MT TOM RD
MIO, MI 48647
Phone 989-848-2446

Airport Operational Statistics

Aircraft based on the field: 11
Single engine airplanes: 11
    
Aircraft operations: avg 67/month *
50% transient general aviation
50% local general aviation
* for 12-month period ending 31 December 2017

Additional Remarks

SHELTER ACCESS, PRESS V, THEN III-II SIMULTANEOUS, THEN I.
DEER ON AND INVOF ARPT.
UNATTENDED OFFICE PH 989-826-6864.

Instrument Procedures

There are no published instrument procedures at 51M.

Some nearby airports with instrument procedures:

KGOV - Grayling Army Airfield (26 nm W)
Y31 - West Branch Community Airport (26 nm S)
KHTL - Roscommon County - Blodgett Memorial Airport (30 nm SW)
KGLR - Gaylord Regional Airport (32 nm NW)
KOSC - Oscoda-Wurtsmith Airport (34 nm SE)
 
Loc | Ops | Rwys | IFR | FBO | Links
Com | Nav | Svcs | Stats | Notes


 
Area around 51M (Oscoda County Dennis Kauffman Memorial Airport)
 
Road maps at: MapQuest Bing Google
 
Aerial photo
WARNING: Photo may not be current or correct
Aerial photo of 51M (Oscoda County Dennis Kauffman Memorial Airport)
Photo by Larry Bugg
Taken in the Fall of 2011
looking west.

Do you have a better or more recent aerial photo of Oscoda County Dennis Kauffman Memorial Airport that you would like to share? If so, please send us your photo.

 
Sectional chart

 
Airport distance calculator
Flying to Oscoda County Dennis Kauffman Memorial Airport? Find the distance to fly.

From to 51M

Sunrise and sunset
Times for 14-Dec-2018
 Local
(UTC-5)
 Zulu
(UTC)
Morning civil twilight07:3312:33
Sunrise08:0713:07
Sunset16:5521:55
Evening civil twilight17:2922:29

Current date and time
Zulu (UTC)  15-Dec-2018 03:06:25
Local (UTC-5)  14-Dec-2018 22:06:25
 
METAR
KY31 
26nm S 
150255Z AUTO 10003KT 4SM BR CLR M01/M01 A3014 RMK AO2 T10101015
KGOV 
26nm W 
150258Z AUTO 29005KT 10SM CLR M02/M03 A3015 RMK AO2 SLP232 T10181032 53002 PNO $
KHTL 
30nm SW 
150253Z AUTO 00000KT 1/2SM FZFG CLR M04/M04 A3016 RMK AO2 SLP230 I3001 T10391039 55001
KGLR 
31nm NW 
150253Z AUTO 26008KT 8SM CLR M01/M03 A3014 RMK AO2 SLP223 T10111033 53004
KAPN 
33nm NE 
150254Z AUTO 26003KT 10SM CLR 01/M03 A3014 RMK AO2 SLP214 T00111028 51008
KOSC 
34nm SE 
150255Z AUTO 30004KT 3SM BR CLR M02/M02 A3015 RMK AO2 T10171017
KPZQ 
46nm N 
150255Z AUTO 25009KT 10SM CLR 02/M03 A3014 RMK AO2 T00151032
KACB 
49nm W 
150256Z AUTO 00000KT 3SM BR CLR M03/M03 A3019 RMK AO2 T10261035
TAF
KAPN 
33nm NE 
142135Z 1422/1518 27006KT P6SM SKC FM150500 VRB03KT P6SM SKC FM151000 VRB03KT 6SM BR FEW015 FM151400 03005KT P6SM FEW015
NOTAMs
Click for the latest NOTAMs
NOTAMs are issued by the DoD/FAA and will open in a separate window not controlled by AirNav.

 

 
 

FBO, Fuel Providers, and Aircraft Ground Support

  
 Business Name 
 
 Contact 
 
 Services / Description 
 
Fuel Prices
 
Comments
  
Oscoda County Dennis Kauffman Airport 989-848-2446
989-826-1130
[email]
Airport management, Aviation fuel, Aircraft parking (ramp or tiedown), Hangar leasing / sales, Passenger terminal and lounge, Pilots lounge / snooze room, ...

More info about Oscoda County Dennis Kauffman Airport
Avfuel
100LL
SS $4.50 
 Updated 09-Jul-2018
 
   write
SS=Self service
Update Fuel Prices
 

Would you like to see your business listed on this page?

 If your business provides an interesting product or service to pilots, flight crews, aircraft, or users of the Oscoda County Dennis Kauffman Memorial Airport, you should consider listing it here.  To start the listing process, click on the button below
 
Add a business
 

Other Pages about Oscoda County Dennis Kauffman Memorial Airport

Page from the Michigan Airport Directory (PDF)
 
Update a link
 
Copyright © AirNav, LLC. All rights reserved. Privacy Policy  Contact